Regional Weather Roundup
Issued by NWS

Home | Current Version | Previous Version | Text Only | Print | Product List | Glossary On
Versions: 1 2 3 4 5 6 7 8 9 10 11 12 13 14 15 16 17 18 19 20 21 22 23 24 25 26 27 28 29 30 31 32 33 34 35 36 37 38 39 40 41 42 43 44 45 46 47 48 49 50
085
ASUS43 KLMK 180610
RWRKY
KENTUCKY REGIONAL WEATHER ROUNDUP
NATIONAL WEATHER SERVICE LOUISVILLE KY
100 AM EST SAT NOV 18 2017

NOTE "FAIR" INDICATES FEW OR NO CLOUDS BELOW 12,000 FEET
WITH NO SIGNIFICANT WEATHER AND/OR OBSTRUCTIONS TO VISIBILITY.

KYZ001>023-026-027-061>063-070>075-180700-
WESTERN AND SOUTH CENTRAL KENTUCKY

CITY           SKY/WX    TMP DP  RH WIND       PRES   REMARKS
PADUCAH        CLOUDY    66  53  63 S14G28    29.69F
HENDERSON      CLOUDY    62  49  62 S16G23    29.72F
OWENSBORO      CLOUDY    60  44  55 S17G24    29.74S
HOPKINSVILLE   CLOUDY    62  48  58 S13G24    29.78F
BOWLING GREEN  CLOUDY    61  36  39 S17G23    29.85F
GLASGOW        CLOUDY    59  33  37 S7        29.88R
$$

KYZ024-025-028>034-038-045-046-053-180700-
NORTH CENTRAL KENTUCKY

CITY           SKY/WX    TMP DP  RH WIND       PRES   REMARKS
LOUISVILLE/SDF CLOUDY    61  37  41 S18G29    29.76F
LOUISVILLE/LOU CLOUDY    59  38  45 S17G29    29.78F
FORT KNOX      CLOUDY    58  36  44 S18       29.76S
$$

KYZ035>037-039>044-047>052-055>060-089>105-180700-
NORTHEAST KENTUCKY

CITY           SKY/WX    TMP DP  RH WIND       PRES   REMARKS
LEXINGTON      CLOUDY    55  37  50 S14       29.81F
COVINGTON      CLOUDY    52  39  61 S14       29.74F
FRANKFORT      LGT RAIN  56  37  49 S13       29.80F
$$

KYZ054-064>069-076>088-106>120-180700-
SOUTHEAST KENTUCKY

CITY           SKY/WX    TMP DP  RH WIND       PRES   REMARKS
JACKSON        CLOUDY    51  33  50 VRB5      29.88F
LONDON         PTCLDY    55  35  47 S7        29.90S
SOMERSET       CLOUDY    55  36  47 S10G18    29.90F
MIDDLESBORO    PTCLDY    54  37  51 S8G16     29.97F
MONTICELLO     PTCLDY    59  39  47 S12G22    29.90F
$$





USA.gov is the U.S. government's official web portal to all federal, state and local government web resources and services.